Danbury, CT

1:54 PM EDT on October 17, 2017 (GMT -0400)
Danbury Municipal

Weather History for KDXR - December, 2012

Change the Weather History Date:

Monday, December 3, 2012

  Actual Average Record
Temperature  
Mean Temperature 44 °F -  
Max Temperature 55 °F 44 °F 63 °F (1998)
Min Temperature 32 °F 26 °F 4 °F (1976)
Degree Days  
Heating Degree Days 22    
Moisture  
Dew Point 42 °F    
Average Humidity 90    
Maximum Humidity 100    
Minimum Humidity 60    
Precipitation  
Precipitation 0.00 in - - ()
Sea Level Pressure  
Sea Level Pressure 30.17 in    
Wind  
Wind Speed 3 mph (West)    
Max Wind Speed 7 mph    
Max Gust Speed -    
Visibility 4 miles    
Events Fog    
Averages and records for this station are not official NWS values.
T = Trace of Precipitation, MM = Missing Value Source: NWS Daily Summary

Daily Weather History Graph

Daily Weather History Graph

Search for Another Location

Airport or City:

Trip Planner

Search our weather history database for the weather conditions in past years. The results will help you decide how hot, cold, wet, or windy it might be!

Date:

Astronomy

Dec. 03, 2012 Rise Set
Actual Time 7:03 AM EST 4:24 PM EST
Civil Twilight 6:32 AM EST 4:55 PM EST
Nautical Twilight 5:57 AM EST 5:30 PM EST
Astronomical Twilight 5:24 AM EST 6:03 PM EST
Moon 9:10 PM EST (12/3) 10:23 AM EST (12/3)
Length of Visible Light 10h 23m
Length of Day
9h 21m
Waning Gibbous, 78% of the Moon is Illuminated
Dec 3
Waning Gibbous
Dec 6
Last Quarter
Dec 13
New
Dec 20
First Quarter
Dec 28
Full

Hourly Weather History & Observations

Time (EST) Temp. Windchill Dew Point Humidity Pressure Visibility Wind Dir Wind Speed Gust Speed Precip Events Conditions
12:53 AM 46.0 °F 43.9 °F 45.0 °F 96% 30.10 in 4.0 mi West 4.6 mph - N/A   Mostly Cloudy
1:53 AM 46.9 °F - 45.0 °F 93% 30.11 in 4.0 mi West 3.5 mph - N/A   Overcast
2:12 AM 46.4 °F 45.2 °F 44.6 °F 93% 30.11 in 3.0 mi WNW 3.5 mph - N/A   Mostly Cloudy
2:21 AM 46.4 °F 45.2 °F 44.6 °F 93% 30.11 in 3.0 mi West 3.5 mph - N/A   Mostly Cloudy
2:41 AM 46.4 °F 45.2 °F 44.6 °F 93% 30.10 in 2.5 mi West 3.5 mph - N/A   Overcast
2:53 AM 46.0 °F 43.9 °F 45.0 °F 96% 30.12 in 2.5 mi WSW 4.6 mph - N/A   Overcast
3:04 AM 46.4 °F 44.3 °F 44.6 °F 93% 30.11 in 2.0 mi WSW 4.6 mph - N/A   Overcast
3:18 AM 46.4 °F 42.9 °F 44.6 °F 93% 30.10 in 1.8 mi WSW 6.9 mph - N/A   Overcast
3:53 AM 46.0 °F 42.5 °F 45.0 °F 96% 30.11 in 1.0 mi WSW 6.9 mph - N/A   Overcast
4:00 AM 44.6 °F 40.7 °F 44.6 °F 100% 30.11 in 0.5 mi WSW 6.9 mph - N/A Fog Fog
4:24 AM 44.6 °F 41.4 °F 44.6 °F 100% 30.12 in 1.0 mi WSW 5.8 mph - N/A   Overcast
4:35 AM 44.6 °F - 44.6 °F 100% 30.12 in 1.2 mi Calm Calm - N/A   Overcast
4:53 AM 44.1 °F 40.8 °F 43.0 °F 96% 30.12 in 1.5 mi WSW 5.8 mph - N/A   Overcast
5:02 AM 44.6 °F - 42.8 °F 93% 30.11 in 0.8 mi Calm Calm - N/A   Overcast
5:15 AM 44.6 °F - 42.8 °F 93% 30.12 in 1.2 mi Calm Calm - N/A   Overcast
5:34 AM 44.6 °F - 42.8 °F 93% 30.13 in 2.5 mi Calm Calm - N/A   Scattered Clouds
5:38 AM 42.8 °F - 42.8 °F 100% 30.13 in 1.0 mi Calm Calm - N/A   Scattered Clouds
5:43 AM 39.2 °F - 39.2 °F 100% 30.13 in 0.2 mi Calm Calm - N/A Fog Fog
5:53 AM 39.0 °F - 39.0 °F 100% 30.14 in 0.2 mi Calm Calm - N/A Fog Fog
6:39 AM 41.0 °F - 41.0 °F 100% 30.15 in 0.8 mi Calm Calm - N/A   Mist
6:47 AM 39.2 °F - 39.2 °F 100% 30.15 in 0.2 mi Calm Calm - N/A Fog Fog
6:53 AM 39.9 °F - 39.0 °F 97% 30.16 in 0.2 mi Calm Calm - N/A Fog Fog
7:53 AM 39.9 °F - 39.0 °F 97% 30.18 in 0.2 mi Calm Calm - N/A Fog Fog
8:51 AM 44.6 °F - 44.6 °F 100% 30.19 in 1.5 mi Calm Calm - N/A   Scattered Clouds
8:53 AM 45.0 °F - 44.1 °F 97% 30.19 in 1.5 mi Calm Calm - N/A   Scattered Clouds
9:06 AM 46.4 °F - 44.6 °F 93% 30.19 in 2.0 mi Calm Calm - N/A   Partly Cloudy
9:37 AM 48.2 °F - 46.4 °F 93% 30.19 in 3.0 mi Calm Calm - N/A   Clear
9:53 AM 48.9 °F - 46.9 °F 93% 30.20 in 4.0 mi Calm Calm - N/A   Clear
10:53 AM 54.0 °F - 46.0 °F 75% 30.20 in 6.0 mi NNW 6.9 mph - N/A   Haze
11:39 AM 55.4 °F - 46.4 °F 72% 30.19 in 8.0 mi North 6.9 mph - N/A   Mostly Cloudy
11:53 AM 54.0 °F - 45.0 °F 72% 30.20 in 9.0 mi NNW 6.9 mph - N/A   Scattered Clouds
12:53 PM 55.0 °F - 43.0 °F 64% 30.19 in 10.0 mi WNW 5.8 mph - N/A   Partly Cloudy
1:53 PM 55.9 °F - 43.0 °F 62% 30.19 in 10.0 mi NW 5.8 mph - N/A   Clear
2:53 PM 55.9 °F - 42.1 °F 60% 30.19 in 10.0 mi WNW 3.5 mph - N/A   Clear
3:53 PM 55.0 °F - 42.1 °F 62% 30.21 in 10.0 mi Calm Calm - N/A   Clear
4:53 PM 46.9 °F - 42.1 °F 83% 30.24 in 10.0 mi Calm Calm - N/A   Clear
5:53 PM 45.0 °F - 41.0 °F 86% 30.26 in 10.0 mi Calm Calm - N/A   Clear
6:53 PM 39.0 °F 36.8 °F 37.0 °F 93% 30.27 in 7.0 mi SSW 3.5 mph - N/A   Clear
7:53 PM 37.9 °F - 36.0 °F 93% 30.28 in 7.0 mi Calm Calm - N/A   Clear
8:53 PM 36.0 °F - 34.0 °F 93% 30.29 in 5.0 mi Calm Calm - N/A   Clear
9:53 PM 34.0 °F 31.0 °F 32.0 °F 92% 30.29 in 6.0 mi WSW 3.5 mph - N/A   Clear
10:53 PM 32.0 °F - 30.9 °F 96% 30.29 in 5.0 mi Calm Calm - N/A   Clear
11:53 PM 32.0 °F - 30.0 °F 92% 30.29 in 5.0 mi Calm Calm - N/A   Clear